{"data":{"norad_id":68281,"epoch":"2026-05-24T23:42:46.141920Z","epoch_age_seconds":75948,"freshness":"FRESH","line1":"1 68281U 26055V   26144.98803405  .00023831  00000+0  81355-3 0  9998","line2":"2 68281  53.1575 325.5018 0000861  99.1812 260.9286 15.30224014 11605","mean_motion":15.30224014,"eccentricity":8.61e-5,"inclination_deg":53.1575,"raan_deg":325.5018,"arg_perigee_deg":99.1812,"mean_anomaly_deg":260.9286,"bstar":0.00081355,"rev_number":1160,"period_min":94.103868899289,"perigee_km":474.5533014418,"apogee_km":475.73343632132,"semimajor_km":6853.2803688816,"source":"CELESTRAK","updated_at":"2026-05-25T13:38:21.894182Z"}}